Date,TemperatureHighF,TemperatureAvgF,TemperatureLowF,DewpointHighF,DewpointAvgF,DewpointLowF,HumidityHigh,HumidityAvg,HumidityLow,PressureMaxIn,PressureMinIn,WindSpeedMaxMPH,WindSpeedAvgMPH,GustSpeedMaxMPH,PrecipitationSumIn
2012-12-1,66,56,42,47,44,39,87,66,49,30.23,30.09,10,3,15,0.01
2012-12-2,62,60,57,59,55,47,96,85,64,30.11,30.01,14,5,22,0.02
2012-12-3,72,65,61,60,58,52,92,77,63,30.11,30.01,14,5,25,0.00
2012-12-4,65,57,39,59,52,37,95,83,64,30.23,29.98,14,4,19,0.33
2012-12-5,58,41,31,44,36,30,98,82,51,30.36,30.23,6,1,9,0.01
2012-12-6,54,41,27,47,36,26,95,84,58,30.23,29.98,4,1,8,0.01
2012-12-7,57,52,48,55,51,47,98,96,93,29.98,29.81,7,2,12,0.32
2012-12-8,56,52,46,55,50,44,98,93,87,29.99,29.82,9,2,10,0.09
2012-12-9,62,54,46,59,52,44,97,94,87,29.99,29.69,7,2,14,1.14
2012-12-10,52,37,31,50,34,27,95,89,83,30.00,29.73,7,2,15,0.00
2012-12-11,38,31,22,28,25,21,93,80,58,30.27,30.01,8,2,10,0.00
2012-12-12,49,30,19,31,24,17,95,79,45,30.42,30.27,4,0,7,0.01
2012-12-13,52,32,19,32,24,17,95,75,33,30.43,30.28,4,1,9,0.00
2012-12-14,56,38,23,32,27,21,94,69,31,30.32,30.13,7,1,15,0.00
2012-12-15,58,50,40,54,43,31,92,78,61,30.14,29.76,16,5,21,0.10
2012-12-16,60,55,44,55,50,42,94,83,68,29.77,29.65,14,4,17,0.00
2012-12-17,51,46,41,47,44,39,97,94,88,29.72,29.55,6,1,10,0.04
2012-12-18,49,42,37,39,36,34,94,80,60,29.90,29.71,10,4,17,0.01
2012-12-19,52,42,30,41,36,28,94,77,60,30.07,29.84,10,2,11,0.00
2012-12-20,57,46,30,51,40,25,95,79,61,29.83,29.28,29,9,36,0.00
2012-12-21,34,28,24,25,22,18,87,77,64,30.23,29.69,20,6,31,0.00
2012-12-22,39,26,13,23,18,11,93,73,46,30.33,30.07,6,1,8,0.00
2012-12-23,56,39,27,35,29,20,90,69,42,30.07,29.90,10,1,12,0.00
2012-12-24,45,39,33,43,35,27,95,87,74,30.05,29.78,7,1,14,0.00
2012-12-25,35,34,31,30,29,27,93,83,78,30.19,29.95,12,4,25,0.00
2012-12-26,33,31,29,31,29,26,95,90,81,30.04,29.59,21,6,25,0.00
2012-12-27,30,29,29,27,26,26,89,88,87,30.11,30.04,3,1,7,0.00